Rbgn^[z[y[W
メイン
   新天体発見情報
     Comet P/2019 M2 (ATLAS)
投稿するにはまず登録を

スレッド表示 | 新しいものから 前のトピック | 次のトピック | 下へ
投稿者 スレッド
佐藤裕久
投稿日時: 2019-7-24 7:51
モデレータ
登録日: 2005-6-12
居住地: 日本
投稿: 2005
オンライン
Comet P/2019 M2 (ATLAS)

6月29.6日UT、ハワイ Mauna Loaにある小惑星地球衝突最終警報システム Asteroid Terrestrial-
impact Last Alert System (ATLAS)調査プログラムのコースに0.5-m 反射望遠鏡で得たCCD画像から
小惑星状天体彗星を発見した。また、A. Heinzeは、7月1.6日に得たATLASイメージから彗星活動を
確認した。p.a. 約235°の南西に向かって約30"のかすかな尾が伸びていると注記している。
小惑星センターのNEOCPとPCCP webpageに公表後、佐藤英貴氏(東京都文京区, iTelescope 天文台, 
0.51-m f/6.8 アストログラフ, Siding Spring, NSW, 遠隔操作: 7月2.8日UT、30秒露出20枚の
スタックで、強く集光したコマが恒星のような核状集光で見え、p.a. 237°に向かって55"の尾が
ある。4".9の円形範囲で測定した光度は18.3等であった)らCCD位置観測者によって彗星状と観測され
た。

発見位置は次のとおり、

     2019 UT             R.A. (2000) Decl.       Mag.
     June 29.58115    0 31 40.48   -18 25 30.9   18.3
          29.58440    0 31 40.48   -18 25 13.6   18.4
          29.59212    0 31 40.77   -18 24 29.6   18.2
          29.60355    0 31 41.13   -18 23 27.3   17.9

楕円軌道要素と位置推算表は次のとおり、

Orbital elements:
    P/2019 M2
Epoch 2019 June 6.0 TT = JDT 2458640.5
T 2019 June 22.66921 TT                                 MPCLINUX
q   1.0633346            (2000.0)            P               Q
n   0.18777143     Peri.  332.52169     +0.18400837     +0.96839068
a   3.0202974      Node   307.59510     -0.85830614     +0.07480813
e   0.6479371      Incl.   12.27133     -0.47901094     +0.23795639
P   5.25
From 96 observations 2019 June 29-July 17, mean residual 0".6.

    P/2019 M2
Epoch 2019 Apr. 27.0 TT = JDT 2458600.5
T 2019 June 22.66852 TT                                 MPCLINUX
q   1.0633381            (2000.0)            P               Q
n   0.18776487     Peri.  332.51608     +0.18399612     +0.96839616
a   3.0203677      Node   307.59998     -0.85830125     +0.07480389
e   0.6479441      Incl.   12.27080     -0.47902442     +0.23793538
P   5.25
From 96 observations 2019 June 29-July 17, mean residual 0".6.

Ephemeris:
Date    TT    R. A. (2000) Decl.     Delta      r    Elong.  Phase   m1
2019 06 17    00 15 19.9 -39 37 21   0.2094  1.0661    98.2    70.6  18.1
...
2019 07 02    00 33 18.6 -14 46 41   0.2267  1.0707    97.6    70.3  18.3
...
2019 07 10    00 36 24.5 -04 02 42   0.2462  1.0883   100.4    66.8  18.5
...
2019 07 16    00 36 36.9 +02 40 51   0.2638  1.1080   103.5    63.1  18.8
2019 07 17    00 36 28.9 +03 41 49   0.2669  1.1118   104.1    62.5  18.8
2019 07 18    00 36 18.2 +04 41 03   0.2700  1.1157   104.7    61.8  18.8
...
2019 07 24    00 34 12.9 +10 01 46   0.2896  1.1420   108.7    57.4  19.1
...
2019 08 01    00 28 38.7 +15 44 11   0.3172  1.1838   114.8    51.1  19.4
...
2019 08 16    00 10 13.0 +22 36 22   0.3750  1.2786   128.1    38.6  20.1


     This object was initially reported on 2019 June 29 UT as asteroidal
by the ATLAS team (T08). A. Heinze (T08) subsequently identified cometary
features in ATLAS images obtained on 2019 July 1 UT: "The measured FWHM
of the object exceeds the mean FWHM of neighboring stars on six out of six
measured ATLAS images, with a cumulative 6 sigma significance and an average
quadrature excess of 4 arcsec. A faint tail extends about 30 arcseconds
toward the southwest, at position angle about 235 degrees." Other reports
of cometary features are summarized below:

OC   Date     Reporter           Coma    Tail
850  July 02  D. T. Durig               ~5" in P.A.  240    (114 x 10s)  
Q62  July 02  H. Sato                  ~55" in P.A.  237             
291  July 04  R. S. McMillan           ~15" in P.A.  240    (2 x 39s)
850  July 04  D. T. Durig     	        72" in P.A.  215    (150 x 10s)
E94  July 07  J. Drummond                2' in P.A.  130    (11 x 60)     
G40  July 05  G. Gasparovic        9"   35" in P.A.  230    (27 x 50s) 
850  July 10  D. T. Durig 	  10"   22" in P.A.  249    (170 x 10s)	
E94  July 11  J. Drummond               40" in P.A. ~243    (36 x 60s)

(CBET 4651、MPEC 2019-O08)

スレッド表示 | 新しいものから 前のトピック | 次のトピック | トップ

投稿するにはまず登録を
 
© 1999 Tsutomu Seki.